Cecil Field, FL

5:46 AM EST on December 10, 2019 (GMT -0500)
Cecil

Weather History for KVQQ - November, 2019

Change the Weather History Date:

Tuesday, November 12, 2019

  Actual Average (WUND) Record (WUND)
Temperature  
Mean Temperature 66 °F -  
Max Temperature 84 °F - - (-1)
Min Temperature 48 °F - - (-1)
Cooling Degree Days 1    
Growing Degree Days 16 (Base 50)    
Moisture  
Dew Point 54 °F    
Average Humidity 87    
Maximum Humidity 100    
Minimum Humidity 48    
Precipitation  
Precipitation 0.00 in - - ()
Sea Level Pressure  
Sea Level Pressure 29.98 in    
Wind  
Wind Speed 3 mph ()    
Max Wind Speed 16 mph    
Max Gust Speed 23 mph    
Visibility 6.6 miles    
Events Fog    
Averages and records for this station are not official NWS values.
T = Trace of Precipitation, MM = Missing Value Source: Averaged Metar Reports

Daily Weather History Graph

Daily Weather History Graph

Search for Another Location

Airport or City:

Astronomy

Nov. 12, 2019 Rise Set
Actual Time 6:50 AM EST 5:32 PM EST
Civil Twilight 6:25 AM EST 5:57 PM EST
Nautical Twilight 5:56 AM EST 6:26 PM EST
Astronomical Twilight 5:27 AM EST 6:55 PM EST
Moon 5:57 PM EST (11/12) 6:44 AM EST (11/12)
Length of Visible Light 11h 32m
Length of Day
10h 42m
Full, 100% of the Moon is Illuminated
Nov 12
Full
Nov 19
Last Quarter
Nov 26
New
Dec 4
First Quarter
Dec 12
Full

Hourly Weather History & Observations

Time (EST) Temp. Heat Index Dew Point Humidity Pressure Visibility Wind Dir Wind Speed Gust Speed Precip Events Conditions
12:15 AM 55.4 °F - 53.6 °F 94% 30.05 in 8.0 mi Calm Calm - N/A   Clear
12:35 AM 53.6 °F - 53.6 °F 100% 30.05 in 8.0 mi Calm Calm - N/A   Partly Cloudy
12:55 AM 53.6 °F - 53.6 °F 100% 30.04 in 7.0 mi Calm Calm - N/A   Clear
1:15 AM 53.6 °F - 51.8 °F 94% 30.03 in 3.0 mi Calm Calm - N/A   Clear
1:55 AM 53.6 °F - 53.6 °F 100% 30.01 in 4.0 mi Calm Calm - N/A   Clear
2:15 AM 53.6 °F - 53.6 °F 100% 30.00 in 7.0 mi Calm Calm - N/A   Clear
2:35 AM 53.6 °F - 51.8 °F 94% 29.99 in 3.0 mi Calm Calm - N/A   Clear
2:55 AM 53.6 °F - 51.8 °F 94% 29.99 in 5.0 mi Calm Calm - N/A   Clear
3:15 AM 53.6 °F - 53.6 °F 100% 29.99 in 8.0 mi Calm Calm - N/A   Clear
3:35 AM 53.6 °F - 51.8 °F 94% 29.97 in 8.0 mi Calm Calm - N/A   Clear
3:55 AM 53.6 °F - 51.8 °F 94% 29.97 in 4.0 mi Calm Calm - N/A   Clear
4:15 AM 51.8 °F - 51.8 °F 100% 29.96 in 8.0 mi Calm Calm - N/A   Clear
4:35 AM 51.8 °F - 50.0 °F 94% 29.95 in 1.8 mi Calm Calm - N/A   Clear
4:55 AM 51.8 °F - 50.0 °F 94% 29.95 in 8.0 mi Calm Calm - N/A   Clear
5:15 AM 51.8 °F - 50.0 °F 94% 29.95 in 5.0 mi Calm Calm - N/A   Clear
5:35 AM 51.8 °F - 50.0 °F 94% 29.95 in 6.0 mi Calm Calm - N/A   Mostly Cloudy
5:55 AM 51.8 °F - 50.0 °F 94% 29.95 in 0.2 mi Calm Calm - N/A Fog Fog
6:15 AM 51.8 °F - 51.8 °F 100% 29.95 in 0.2 mi Calm Calm - N/A Fog Fog
6:35 AM 51.8 °F - 50.0 °F 94% 29.95 in 3.0 mi Calm Calm - N/A   Mostly Cloudy
6:50 AM 51.8 °F - 50.0 °F 94% 29.96 in 3.0 mi Calm Calm - N/A   Scattered Clouds
7:00 AM 51.8 °F - 50.0 °F 94% 29.96 in 0.2 mi Calm Calm - N/A Fog Fog
7:50 AM 55.4 °F - 53.6 °F 94% 29.96 in 0.2 mi Calm Calm - N/A Fog Fog
8:50 AM 68.0 °F - 66.2 °F 94% 29.96 in 7.0 mi Calm Calm - N/A   Clear
9:50 AM 77.0 °F - 66.2 °F 69% 29.96 in 10.0 mi SW 5.8 mph - N/A   Clear
10:50 AM 82.4 °F 83.9 °F 64.4 °F 54% 29.95 in 10.0 mi WSW 11.5 mph - N/A   Clear
11:50 AM 84.2 °F 85.0 °F 62.6 °F 48% 29.93 in 10.0 mi WSW 11.5 mph - N/A   Clear
12:50 PM 82.4 °F 83.4 °F 62.6 °F 51% 29.89 in 10.0 mi WSW 11.5 mph - N/A   Mostly Cloudy
1:50 PM 84.2 °F 85.0 °F 62.6 °F 48% 29.87 in 10.0 mi WSW 11.5 mph - N/A   Mostly Cloudy
2:50 PM 77.0 °F - 62.6 °F 61% 29.86 in 10.0 mi WSW 11.5 mph - N/A   Overcast
3:50 PM 73.4 °F - 66.2 °F 78% 29.89 in 9.0 mi NW 11.5 mph - N/A   Overcast
4:50 PM 66.2 °F - 62.6 °F 88% 29.91 in 6.0 mi NW 12.7 mph - N/A   Drizzle
5:50 PM 60.8 °F - 59.0 °F 94% 29.94 in 6.0 mi NNW 11.5 mph - N/A   Overcast
7:50 PM 53.6 °F - 50.0 °F 88% 30.02 in 10.0 mi NNW 11.5 mph 20.7 mph N/A   Mostly Cloudy
8:50 PM 50.0 °F - 44.6 °F 82% 30.05 in 10.0 mi NNW 16.1 mph 23.0 mph N/A   Mostly Cloudy
9:50 PM 50.0 °F - 42.8 °F 76% 30.09 in 10.0 mi NNW 15.0 mph - N/A   Overcast
10:50 PM 48.2 °F - 44.6 °F 87% 30.10 in 10.0 mi North 11.5 mph - N/A   Overcast
11:15 PM 48.2 °F - 44.6 °F 87% 30.10 in 10.0 mi North 10.4 mph - N/A   Overcast
11:35 PM 50.0 °F - 44.6 °F 82% 30.11 in 10.0 mi North 10.4 mph 18.4 mph N/A   Overcast
11:55 PM 50.0 °F - 44.6 °F 82% 30.11 in 10.0 mi North 9.2 mph 16.1 mph N/A   Overcast